User: anonymous   Login
Location: Unspecified
(0.0000°N, 0.0000°E)
Time: 06:54:53
(UTC+00:00)
Language:

STARLINK-1443 - Orbit

View from above orbital plane
View from above orbital plane
View from above satellite
View from above satellite

Ground track
Ground track

The orbit is defined by the following mean orbital elements,

1 45660U          26145.48318000 +.00000000 +00000-0 +13003-2 0 00005
2 45660  53.1335  68.9689 0004333  60.9020 299.2414 15.31179002    09
Epoch (UTC): 25 May 2026 11:35:46
Eccentricity: 0.0004333
inclination: 53.1335°
perigee height: 469 km
apogee height: 475 km
right ascension of ascending node: 68.9689°
argument of perigee: 60.9020°
revolutions per day: 15.31179002
mean anomaly at epoch: 299.2414°

The dashed part of the orbit path shows where the satellite is in the earth's shadow,  

DLR